Presure
180 200 190 157 165 204 185 173 156 155 164 167 164 158 151 148 156 160 153 157 152 143 145 152 150 148 153 154 143 145 150 155 157 151 137 142 146 149 151 144 145 167 156
167 176 176 182 199 198 183 173 162 163 162 155 167 161 164 163 161 159 158 161 163 137 140 142 143 166 156 151 144 152 152 169 152 158 152 150 155 168 139 173 151 175 214
176 169 171 179 168 166 165 165 158 170 154 170 149 153 157 154 155 155 157 162 160 160 158 154 159 150 149 151 162 156 150 150 152 158 157 172 165 162 160 175 181 158 195
190 188 177 171 162 177 168 166 167 160 161 167 155 159 169 169 162 167 162 167 170 165 162 170 162 158 162 166 159 160 165 171 170 153 159 156 156 162 176 157 148 178 154
159 176 199 194 188 176 176 174 162 158 166 158 162 161 163 175 174 172 168 169 172 168 174 173 172 173 171 171 168 175 198 177 171 168 168 169 161 161 164 163 152 153 155
167 214 144 191 207 194 126 165 186 181 173 121 117 183 173 169 164 175 174 165 170 173 177 172 170 152 154 161 184 178 162 175 171 191 176 153 169 177 146 166 160 157 161
155 187 157 134 133 175 178 133 171 116 187 168 171 164 173 173 164 171 176 166 162 165 163 163 163 149 160 138 136 148 151 154 171 176 168 173 167 156 152 154 160 158 164
165 149 153 204 127 128 123 121 146 115 181 176 165 172 178 180 181 180 186 180 176 164 168 168 174 167 169 157 158 153 155 158 150 145 164 158 183 161 157 149 167 165 169
172 145 174 267 147 221 191 125 136 167 182 172 178 189 176 189 196 300 291 297 283 269 258 265 252 217 170 194 174 154 162 161 161 149 178 167 162 163 160 168 165 164 141
182 165 143 136 136 138 135 132 128 201 137 182 177 183 171 213 210 236 161 238 321 301 272 251 245 241 229 201 197 186 184 171 164 162 158 164 174 171 168 171 168 158 148
182 180 178 178 169 128 127 125 177 184 181 188 203 197 159 183 192 164 184 228 246 238 189 251 203 230 229 222 209 199 199 200 180 163 179 166 174 168 177 166 164 152 154
144 186 171 176 174 236 124 125 125 188 191 203 204 167 215 176 202 213 193 194 214 188 187 180 183 243 241 231 219 204 184 175 173 178 171 172 170 176 171 158 163 155 153
141 186 190 162 237 221 181 159 149 210 163 161 149 186 202 221 193 208 190 209 214 207 191 196 197 193 189 182 182 178 177 174 177 185 188 183 167 163 178 172 179 189 160
143 140 215 236 219 237 189 188 184 168 165 178 209 199 210 227 197 200 192 182 202 209 202 191 202 196 188 181 180 179 181 177 187 170 180 183 165 167 167 160 161 169 171
254 153 187 236 245 275 208 193 161 177 225 147 153 165 199 216 198 201 200 187 195 192 185 180 195 185 187 192 193 190 184 192 171 166 169 166 176 171 172 175 181 183 191
208 192 176 132 249 222 247 191 177 156 152 144 199 142 188 202 213 192 196 183 177 197 185 186 184 185 184 179 174 182 182 180 176 173 170 175 183 186 189 194 206 211 207
160 161 162 156 149 256 177 156 173 170 176 163 149 148 163 188 201 194 132 137 207 197 214 203 200 198 182 182 188 188 185 188 186 189 200 207 205 219 183 235 163 198 178
148 150 181 156 137 162 143 191 153 165 171 156 164 211 154 156 158 196 234 205 186 191 168 211 216 223 207 209 198 190 183 196 204 189 151 152 149 148 152 151 163 162 173
156 150 172 161 158 139 161 154 167 158 150 150 162 164 162 192 222 211 228 227 197 229 230 228 229 230 214 218 197 204 212 195 158 149 145 144 150 148 149 148 153 154 174
136 155 153 143 149 143 169 140 137 143 146 180 151 146 193 193 168 167 160 170 217 198 227 283 319 317 302 250 192 163 158 157 150 164 161 150 146 166 164 172 173 177 155
160 142 146 148 151 165 145 144 162 161 133 133 152 145 120 128 158 152 189 194 182 218 216 238 274 175 170 165 162 157 125 155 153 153 179 146 137 178 185 166 160 212 194
149 161 138 159 144 152 155 150 150 166 147 140 141 130 153 151 158 160 203 224 189 168 167 174 168 130 125 155 151 129 172 168 167 179 178 198 128 181 157 159 153 161 186
131 130 151 134 152 150 136 144 145 148 144 151 147 135 141 131 152 158 138 196 175 167 152 136 156 177 171 161 162 150 149 169 154 138 169 164 153 151 160 152 174 155 155
134 130 153 135 151 135 142 158 134 141 141 140 158 151 148 144 144 151 138 152 148 169 169 161 190 177 182 154 161 147 164 160 192 159 136 144 153 158 128 154 146 148 153
132 132 148 148 120 129 145 143 145 134 146 117 147 150 137 141 132 139 141 135 131 150 152 148 135 137 153 133 158 182 129 186 146 183 149 171 161 156 160 147 151 152 150
143 142 133 129 126 130 129 130 148 136 144 136 152 149 141 156 148 135 133 135 136 128 133 134 137 153 148 149 153 189 177 142 168 145 140 166 172 151 151 161 155 155 151
Wind_Speed
12 9 10 8 5 25 17 10 7 4 13 13 14 24 21 17 24 27 29 32 35 35 37 39 47 49 49 51 44 52 54 56 60 62 42 52 57 63 61 49 50 56 55
15 10 8 8 10 16 16 18 11 11 13 9 18 16 21 24 23 25 26 28 32 26 33 36 38 42 45 48 44 50 52 50 53 56 57 58 62 52 38 50 50 49 35
11 10 7 3 5 3 3 5 3 13 4 13 11 14 16 19 22 24 26 30 29 32 36 38 39 39 43 45 50 49 42 41 43 42 43 42 43 44 46 45 36 35 24
6 2 3 4 6 8 5 6 9 7 9 18 14 17 18 25 27 27 28 33 33 35 38 36 40 41 43 45 46 47 49 47 44 39 41 40 38 40 35 34 33 24 31
20 17 3 7 8 7 11 13 9 7 16 12 19 20 21 23 23 25 26 27 29 30 31 31 32 31 33 33 34 37 36 40 38 39 37 36 30 31 31 31 30 30 29
21 13 18 13 3 9 23 1 16 15 9 19 20 16 14 13 14 20 20 19 23 27 30 30 26 17 19 20 30 31 22 28 27 25 27 22 30 21 25 26 27 27 28
20 21 19 17 18 9 7 22 7 19 4 2 4 2 9 13 11 17 21 20 19 23 22 24 24 17 23 12 12 19 19 19 21 22 23 22 22 24 23 25 25 26 26
23 20 19 13 16 19 21 16 14 16 5 5 5 4 9 13 17 21 26 24 25 22 26 26 29 28 28 22 22 21 22 21 17 18 18 20 18 21 23 19 22 23 25
25 16 15 12 19 4 7 17 21 12 5 6 1 5 5 14 16 10 11 10 13 14 11 9 14 21 27 22 26 19 24 22 17 16 13 16 19 20 20 19 20 21 19
30 22 14 16 19 19 19 22 20 1 26 7 12 10 13 16 14 17 6 15 7 5 10 10 13 16 18 16 14 18 22 23 18 16 15 15 15 15 15 15 15 18 23
31 29 30 23 18 20 20 19 22 16 15 10 5 6 14 17 11 10 20 23 30 21 20 16 15 9 11 16 14 14 10 7 16 12 8 10 9 10 12 13 16 20 23
28 28 28 29 23 19 13 15 17 18 15 9 12 21 16 17 12 15 23 24 18 19 16 10 16 20 19 18 17 15 11 8 7 7 6 5 5 6 10 19 20 22 24
26 29 31 29 27 25 29 22 23 13 26 25 24 19 18 17 25 24 25 25 16 10 19 21 23 23 24 21 18 13 10 7 6 3 4 4 11 16 14 19 24 28 25
24 28 30 30 28 27 30 27 27 27 29 31 29 28 25 18 26 27 27 30 22 22 21 21 18 18 19 18 15 13 10 7 9 12 7 9 21 23 23 23 24 25 26
34 33 32 34 33 30 28 29 24 31 22 32 36 35 34 23 30 24 26 28 22 21 22 23 17 17 19 15 13 11 8 6 19 24 23 26 21 23 24 24 25 25 24
42 42 43 23 35 37 33 35 36 34 35 35 37 35 36 34 29 30 25 26 25 20 21 19 18 16 17 19 19 12 14 17 21 25 26 23 21 23 25 26 24 23 23
40 41 39 38 32 37 46 35 42 38 40 40 35 35 44 41 35 35 38 39 20 18 14 14 13 12 17 16 16 14 16 17 18 20 18 17 24 26 48 26 46 37 44
30 30 42 35 23 42 30 47 37 41 46 37 43 55 41 45 42 35 28 23 23 25 25 14 9 2 10 10 19 24 34 25 20 32 47 51 43 38 41 42 47 47 50
30 28 38 38 33 23 41 38 45 39 35 36 48 47 47 46 40 41 37 29 28 26 24 17 10 7 10 11 31 27 21 38 55 44 37 34 37 38 41 41 40 43 51
25 29 32 28 28 25 46 26 27 30 32 46 44 40 54 54 52 52 46 43 37 42 40 26 15 12 14 16 50 58 51 50 40 48 43 33 35 35 32 41 42 45 45
29 23 27 29 28 37 27 30 43 48 23 25 48 43 17 35 56 52 48 48 46 59 63 56 49 66 60 59 54 48 36 43 38 34 42 32 31 37 48 52 49 44 47
24 28 23 31 24 28 30 32 34 49 34 32 36 27 51 52 55 55 52 45 54 45 52 58 51 50 45 26 35 36 53 49 47 48 48 44 15 42 53 56 60 65 55
15 18 22 19 26 27 22 26 29 33 31 42 40 29 39 34 53 55 48 53 48 49 48 42 38 35 32 31 33 30 34 40 37 31 51 51 44 48 56 58 54 62 60
13 13 21 17 24 22 23 26 19 24 26 29 45 41 44 42 46 54 46 51 47 41 36 36 38 38 35 33 34 31 34 30 31 33 31 41 52 48 24 56 59 57 56
9 11 23 19 13 16 21 21 21 20 25 21 30 36 29 35 30 41 46 41 37 47 45 42 41 48 48 37 36 28 34 34 50 35 51 44 50 53 51 58 54 52 51
14 13 11 11 12 13 14 16 17 19 20 27 27 31 29 39 37 31 32 37 39 33 38 37 39 45 40 46 43 31 37 48 32 50 51 49 48 56 56 48 50 49 49
Wind_Direction
69 142 163 95 165 212 207 187 189 205 223 222 221 216 229 254 251 256 245 246 248 254 259 258 257 260 260 262 267 266 268 272 273 270 279 276 282 284 288 294 298 297 295
38 50 74 127 169 185 186 183 200 213 218 256 238 250 260 260 261 264 260 261 257 268 258 258 261 265 262 267 273 268 270 272 276 275 278 281 282 289 296 295 294 297 305
35 31 35 173 5 7 341 191 284 215 304 228 320 292 276 273 269 270 269 270 264 267 264 263 263 268 268 270 269 271 270 273 278 282 284 288 289 292 292 299 302 304 312
25 341 336 350 39 235 265 276 247 303 270 253 293 280 268 265 264 267 269 273 273 269 267 271 267 267 268 269 271 272 276 276 275 280 285 286 290 295 299 300 303 306 309
66 58 273 264 260 253 240 243 276 302 252 277 257 265 262 267 276 276 276 280 276 276 276 274 272 272 270 272 272 273 275 273 276 280 283 289 293 297 299 298 303 308 312
60 26 72 42 236 233 73 193 244 247 255 68 64 265 270 275 281 275 275 277 278 277 276 273 271 270 273 273 271 271 285 280 280 279 278 299 298 293 301 303 312 314 313
67 46 65 77 74 77 94 71 79 79 251 58 340 345 284 284 303 294 286 280 286 275 271 266 262 274 265 299 315 288 286 285 283 280 290 292 293 299 303 308 317 314 318
59 68 67 53 74 74 77 79 86 79 65 56 54 329 302 298 294 293 288 281 273 278 269 266 260 260 259 264 272 278 282 282 290 303 296 297 290 295 302 310 316 315 317
58 78 71 68 61 91 81 67 56 74 39 76 19 310 15 332 315 296 281 265 258 249 237 213 216 239 254 249 259 270 275 276 278 294 296 295 294 298 301 310 313 313 342
57 66 76 72 72 67 59 52 55 275 44 91 46 27 53 46 46 61 356 44 125 133 134 149 167 192 213 228 233 247 255 259 267 284 288 294 286 296 310 309 311 328 345
54 56 57 55 69 65 59 58 74 82 64 44 36 63 44 50 86 39 48 48 68 73 82 93 85 120 168 197 207 221 239 216 256 268 277 292 293 312 307 314 322 341 339
64 48 60 55 61 73 73 65 61 87 82 64 58 51 57 44 64 55 55 50 65 44 47 55 78 96 109 115 119 125 138 174 213 220 257 277 291 304 320 353 341 345 346
69 58 56 66 66 73 74 70 65 71 65 59 50 70 59 66 49 47 61 62 58 38 53 55 77 83 90 97 105 120 142 171 188 183 158 222 24 14 334 343 330 324 340
72 74 59 61 66 83 75 70 68 67 60 68 65 67 57 69 45 39 54 65 54 58 48 56 72 94 110 112 118 132 152 125 138 55 42 21 29 20 8 7 356 342 336
56 68 65 65 70 72 83 83 77 68 81 68 59 60 55 51 60 53 53 62 53 63 71 72 65 82 90 99 125 137 123 128 63 52 41 36 18 19 9 360 349 344 340
60 66 66 82 70 71 86 81 72 69 68 63 65 55 62 59 60 59 62 66 64 51 62 67 65 62 70 80 85 91 73 62 54 45 44 36 24 18 15 6 355 359 358
74 73 75 82 75 71 80 79 74 69 68 67 63 59 60 57 58 58 60 63 45 56 51 59 70 77 82 85 87 81 71 63 55 50 35 19 32 30 52 27 45 27 28
81 83 68 75 79 79 85 78 75 75 72 69 66 64 63 60 56 63 60 62 57 59 67 68 73 92 86 93 95 90 82 72 64 78 87 81 80 76 66 61 49 43 30
73 82 74 74 77 77 81 79 79 77 71 66 67 64 65 61 64 68 67 68 67 70 64 59 75 125 103 96 89 88 84 91 99 99 99 96 85 81 71 70 50 52 33
80 74 80 81 78 80 80 80 80 75 73 70 69 65 64 61 59 61 58 56 76 74 69 41 67 103 128 120 102 98 100 104 111 95 96 104 98 65 51 55 46 39 47
70 73 78 79 79 79 80 80 79 80 78 77 70 67 68 62 59 58 63 67 76 84 82 79 71 99 102 107 111 113 20 107 107 105 74 99 88 70 60 62 55 33 35
81 72 72 76 77 73 73 79 77 80 80 79 76 71 70 65 62 59 65 74 90 79 87 90 86 53 49 79 89 13 97 97 92 83 79 67 60 73 65 60 57 53 41
106 96 78 74 79 78 72 76 80 79 77 78 73 71 70 71 67 62 60 71 77 83 77 65 59 65 79 85 89 72 65 83 71 46 76 72 72 62 71 66 61 57 54
115 104 79 79 81 77 73 71 68 67 74 72 76 78 76 74 71 60 66 60 63 66 67 62 62 64 68 75 57 71 80 68 77 62 58 61 61 66 82 64 60 57 54
127 108 97 86 97 83 81 74 69 61 58 75 73 77 69 75 64 69 67 67 66 56 57 59 68 70 67 69 70 56 66 66 61 73 55 66 61 62 61 52 59 60 57
139 130 114 101 92 83 74 80 65 63 56 51 59 69 66 72 75 69 64 64 63 62 57 56 54 51 64 62 63 65 63 57 70 56 57 61 66 54 49 63 58 60 56